Date_and_time,latitude,longitude,wind_speed,RelWindDirFrom,WindDirFrom,air_pressure,air_temperature,relative_humidity,Temp,platform_speed_wrt_ground,air_pressure_at_mean_sea_level,platform_orientation
2018-07-29 00:00,50.6304433333333,-96.9807683333333,5.5,8.6,255,990.98,26.8,31,23.39,0.0,1016.54,90.0
2018-07-29 00:10,50.63044,-96.9807666666667,4.1,12.4,309,991.14,27.1,32,23.31,0.0,1016.68,90.0
2018-07-29 00:20,50.63044,-96.980765,5.3,11.7,17,991.24,24.9,48,23.34,0.0,1016.84,90.0
2018-07-29 00:30,50.63044,-96.9807633333333,7.2,12.0,45,991.08,25.0,45,23.39,0.0,1016.64,90.0
2018-07-29 00:40,50.6304383333333,-96.9807666666667,3.2,6.9,37,991.11,25.8,40,23.28,0.0,1016.67,90.0
2018-07-29 00:50,50.6304366666667,-96.9807516666667,5.1,7.8,48,991.06,25.9,41,23.13,0.0,1016.58,90.0
2018-07-29 01:00,50.6304466666667,-96.98077,6.1,8.9,43,990.97,25.2,46,23.14,0.0,1016.51,332.6
2018-07-29 01:10,50.63049,-96.98079,6.3,8.0,45,990.98,24.8,50,23.21,0.0,1016.53,332.6
2018-07-29 01:20,50.630445,-96.9807566666667,4.0,6.4,49,991.07,24.4,51,23.04,0.0,1016.61,332.6
2018-07-29 01:30,50.6304416666667,-96.98076,1.3,2.5,31,991.06,24.9,44,23.07,0.0,1016.58,332.6
2018-07-29 01:40,50.63044,-96.9807566666667,0.0,0.4,0,991.03,25.3,41,23.24,0.0,1016.53,332.6
2018-07-29 01:50,50.6304416666667,-96.9807616666667,1.2,3.0,215,991.03,25.2,42,23.35,0.0,1016.52,332.6
2018-07-29 02:00,50.6304433333333,-96.98077,1.0,2.5,223,991.12,24.6,51,23.37,0.0,1016.63,38.0
2018-07-29 02:10,50.6304433333333,-96.9807716666667,1.5,2.4,237,991.17,24.3,48,23.47,0.0,1016.79,38.0
2018-07-29 02:20,50.6304283333333,-96.980765,2.0,2.7,232,991.15,24.1,46,23.61,0.0,1016.78,38.0
2018-07-29 02:30,50.6304333333333,-96.9807583333333,1.8,3.3,243,991.19,23.9,48,23.51,0.0,1016.79,38.0
2018-07-29 02:40,50.6304383333333,-96.98076,3.3,5.6,313,991.27,23.8,47,23.32,0.0,1016.87,38.0
2018-07-29 02:50,50.6304383333333,-96.9807633333333,2.8,4.7,307,991.29,23.4,47,23.49,0.0,1016.94,38.0
2018-07-29 03:00,50.6304533333333,-96.98078,2.4,4.2,309,991.22,23.2,46,23.56,0.0,1016.89,310.6
2018-07-29 03:10,50.630455,-96.98077,1.1,2.7,314,991.21,22.9,48,23.37,0.0,1016.92,310.6
2018-07-29 03:20,50.6304516666667,-96.9807666666667,0.6,1.8,226,991.21,22.3,55,23.31,0.0,1016.92,310.6
2018-07-29 03:30,50.63045,-96.9807633333333,2.0,3.0,233,991.28,21.7,55,23.24,0.0,1017.00,310.6
2018-07-29 03:40,50.63045,-96.9807633333333,2.0,3.0,217,991.31,21.2,57,22.95,0.0,1017.06,310.6
2018-07-29 03:50,50.6304483333333,-96.9807616666667,2.4,3.1,216,991.31,20.7,58,22.76,0.0,1017.11,310.6
2018-07-29 04:00,50.63045,-96.98076,1.5,2.6,211,991.33,20.5,59,22.52,0.0,1017.14,12.6
2018-07-29 04:10,50.6304433333333,-96.980765,2.6,3.7,215,991.34,19.8,63,22.37,0.0,1017.20,12.6
2018-07-29 04:20,50.6304466666667,-96.9807666666667,2.5,4.1,239,991.40,19.4,63,22.48,0.0,1017.29,12.6
2018-07-29 04:30,50.6304516666667,-96.9807633333333,3.0,5.8,254,991.43,19.4,62,22.77,0.0,1017.32,12.6
2018-07-29 04:40,50.63043,-96.9807566666667,4.2,6.2,247,991.46,19.3,62,23.07,0.0,1017.37,12.6
2018-07-29 04:50,50.6304416666667,-96.9807583333333,5.2,6.2,256,991.52,19.0,61,22.97,0.0,1017.45,12.6
2018-07-29 05:00,50.6304566666667,-96.98077,5.5,7.2,254,991.55,18.9,61,23.00,0.0,1017.50,360.0
2018-07-29 05:10,50.6304216666667,-96.980785,6.3,8.3,264,991.56,18.9,62,22.96,0.0,1017.54,360.0
2018-07-29 05:20,50.630435,-96.980765,5.7,7.4,264,991.56,19.1,60,22.92,0.0,1017.56,360.0
2018-07-29 05:30,50.6304383333333,-96.9807616666667,4.9,6.6,264,991.54,19.3,59,23.15,0.0,1017.55,360.0
2018-07-29 05:40,50.6304383333333,-96.9807616666667,5.2,6.7,261,991.60,19.1,59,23.05,0.0,1017.65,360.0
2018-07-29 05:50,50.63044,-96.9807633333333,5.9,8.5,264,991.65,18.8,61,22.64,0.0,1017.72,360.0
2018-07-29 06:00,50.6304433333333,-96.980765,6.0,8.1,268,991.70,18.6,62,22.44,0.0,1017.81,130.6
2018-07-29 06:10,50.6304433333333,-96.980765,6.0,8.3,266,991.74,18.4,63,22.34,0.0,1017.88,130.6
2018-07-29 06:20,50.6304433333333,-96.980765,5.6,7.8,267,991.71,18.1,65,22.17,0.0,1017.86,130.6
2018-07-29 06:30,50.63043,-96.98076,6.1,8.0,258,991.74,17.8,65,22.05,0.0,1017.92,130.6
2018-07-29 06:40,50.6304316666667,-96.9807666666667,6.7,9.2,256,991.77,17.3,68,21.99,0.0,1017.98,130.6
2018-07-29 06:50,50.63043,-96.980765,6.4,8.5,262,991.71,17.2,68,22.12,0.0,1017.93,130.6
2018-07-29 07:00,50.63043,-96.980765,5.7,7.6,268,991.61,17.3,69,22.13,0.0,1017.81,360.0
2018-07-29 07:10,50.6304666666667,-96.9807383333333,5.9,7.9,261,991.66,17.2,70,21.99,0.0,1017.87,360.0
2018-07-29 07:20,50.63044,-96.9807733333333,6.1,8.0,266,991.67,17.0,71,22.02,0.0,1017.88,360.0
2018-07-29 07:30,50.6304416666667,-96.9807733333333,6.1,8.0,265,991.66,17.2,71,22.25,0.0,1017.87,360.0
2018-07-29 07:40,50.6304433333333,-96.98077,6.4,8.3,261,991.69,17.0,71,22.10,0.0,1017.92,360.0
2018-07-29 07:50,50.6304433333333,-96.98077,6.0,8.0,267,991.65,16.9,72,21.99,0.0,1017.90,360.0
2018-07-29 08:00,50.6304433333333,-96.9807716666667,6.2,7.8,269,991.63,16.9,72,21.96,0.0,1017.88,194.5
2018-07-29 08:10,50.6304416666667,-96.98077,6.4,8.0,269,991.61,16.8,73,21.99,0.0,1017.88,194.5
2018-07-29 08:20,50.6304416666667,-96.9807683333333,6.8,8.6,269,991.64,16.7,73,22.00,0.0,1017.93,194.5
2018-07-29 08:30,50.6304416666667,-96.98077,6.3,8.1,270,991.60,16.6,74,21.99,0.0,1017.91,194.5
2018-07-29 08:40,50.63044,-96.9807683333333,6.4,8.6,271,991.61,16.5,75,21.89,0.0,1017.93,194.5
2018-07-29 08:50,50.6304466666667,-96.9807866666667,6.0,8.5,267,991.61,16.4,76,21.82,0.0,1017.94,194.5
2018-07-29 09:00,50.63044,-96.9807583333333,5.8,8.0,270,991.56,16.4,77,21.79,0.0,1017.89,90.0
2018-07-29 09:10,50.63044,-96.9807616666667,6.1,8.2,276,991.55,16.2,77,21.80,0.0,1017.89,90.0
2018-07-29 09:20,50.63044,-96.9807633333333,6.0,7.8,274,991.62,15.9,79,21.77,0.0,1017.97,90.0
2018-07-29 09:30,50.63044,-96.9807616666667,6.2,8.1,277,991.63,15.9,80,21.75,0.0,1018.00,90.0
2018-07-29 09:40,50.6304383333333,-96.9807616666667,5.8,7.7,272,991.61,15.9,81,21.70,0.0,1017.97,90.0
2018-07-29 09:50,50.6304083333333,-96.9807433333333,6.3,8.4,259,991.62,15.7,82,21.66,0.0,1018.00,90.0
2018-07-29 10:00,50.6304383333333,-96.98075,6.0,8.1,265,991.52,15.4,84,21.60,0.0,1017.92,3.2
2018-07-29 10:10,50.630465,-96.9807966666667,5.8,7.6,264,991.47,15.5,85,21.62,0.0,1017.86,3.2
2018-07-29 10:20,50.630435,-96.9807616666667,4.8,7.3,256,991.52,15.3,85,21.64,0.0,1017.92,3.2
2018-07-29 10:30,50.6304366666667,-96.9807583333333,0.8,5.9,230,991.63,15.5,87,21.63,0.0,1018.04,3.2
2018-07-29 10:40,50.630425,-96.980745,1.3,4.5,274,991.67,15.7,85,21.70,0.0,1018.06,3.2
2018-07-29 10:50,50.6304483333333,-96.980775,2.1,3.9,281,991.69,15.5,87,21.96,0.0,1018.10,3.2
2018-07-29 11:00,50.6304516666667,-96.9807583333333,4.1,6.4,265,991.71,14.9,89,21.83,0.0,1018.16,12.6
2018-07-29 11:10,50.63045,-96.9807633333333,3.6,6.1,273,991.67,14.7,90,21.71,0.0,1018.14,12.6
2018-07-29 11:20,50.630455,-96.9807716666667,1.7,3.8,272,991.78,14.9,89,21.63,0.0,1018.24,12.6
2018-07-29 11:30,50.63045,-96.9807683333333,1.7,3.5,243,991.86,15.1,88,21.59,0.0,1018.31,12.6
2018-07-29 11:40,50.6304483333333,-96.980775,2.2,4.0,242,991.85,15.3,87,21.55,0.0,1018.30,12.6
2018-07-29 11:50,50.6304433333333,-96.98077,3.5,5.4,262,991.88,15.4,85,21.53,0.0,1018.35,12.6
2018-07-29 12:00,50.6304466666667,-96.9807733333333,3.7,5.6,264,991.92,15.8,83,21.49,0.0,1018.36,299.2
2018-07-29 12:10,50.6304466666667,-96.9807683333333,2.9,4.3,246,991.93,16.1,82,21.52,0.0,1018.37,299.2
2018-07-29 12:20,50.6304433333333,-96.9807683333333,2.6,4.2,246,991.87,16.3,81,21.52,0.0,1018.29,299.2
2018-07-29 12:30,50.6304433333333,-96.9807666666667,2.5,4.0,251,991.90,16.8,78,21.57,0.0,1018.29,299.2
2018-07-29 12:40,50.6304433333333,-96.980765,3.3,4.8,248,991.91,17.0,78,21.53,0.0,1018.30,299.2
2018-07-29 12:50,50.6304433333333,-96.9807633333333,2.2,4.0,249,991.89,17.1,77,21.49,0.0,1018.30,299.2
2018-07-29 13:00,50.6304416666667,-96.9807766666667,2.9,4.8,282,991.83,17.8,73,21.48,0.0,1018.21,270.0
2018-07-29 13:10,50.6304383333333,-96.9807616666667,2.9,4.3,279,991.82,18.2,72,21.46,0.0,1018.18,270.0
2018-07-29 13:20,50.6304416666667,-96.9807616666667,1.6,3.8,271,991.91,18.6,71,21.45,0.0,1018.24,270.0
2018-07-29 13:30,50.6304416666667,-96.9807633333333,1.5,4.2,259,992.03,19.2,67,21.44,0.0,1018.32,270.0
2018-07-29 13:40,50.63044,-96.9807633333333,1.8,3.1,224,992.09,19.8,66,21.42,0.0,1018.35,270.0
2018-07-29 13:50,50.63044,-96.9807633333333,2.8,3.8,229,992.05,20.2,65,21.41,0.0,1018.28,270.0
2018-07-29 14:00,50.630435,-96.9807733333333,2.9,4.5,258,992.04,20.6,63,21.45,0.0,1018.24,183.2
2018-07-29 14:10,50.63043,-96.980765,2.6,4.2,254,992.04,21.0,61,21.43,0.0,1018.21,183.2
2018-07-29 14:20,50.6304333333333,-96.98076,3.0,4.0,221,992.03,21.3,61,21.41,0.0,1018.17,183.2
2018-07-29 14:30,50.630435,-96.9807583333333,2.1,3.8,238,992.06,21.6,59,21.39,0.0,1018.17,183.2
2018-07-29 14:40,50.6304416666667,-96.9807633333333,3.0,5.3,247,992.13,22.1,57,21.39,0.0,1018.22,183.2
2018-07-29 14:50,50.6304416666667,-96.9807666666667,3.7,5.5,227,992.09,22.2,55,21.41,0.0,1018.14,183.2
2018-07-29 15:00,50.63044,-96.9807716666667,4.7,6.7,231,992.15,22.6,52,21.42,0.0,1018.16,142.0
2018-07-29 15:10,50.63044,-96.9807683333333,4.6,6.5,243,992.12,23.0,49,21.43,0.0,1018.10,142.0
2018-07-29 15:20,50.63044,-96.9807683333333,4.8,7.3,238,992.07,23.3,48,21.43,0.0,1018.01,142.0
2018-07-29 15:30,50.6304416666667,-96.9807683333333,2.8,5.2,255,991.97,23.6,46,21.45,0.0,1017.86,142.0
2018-07-29 15:40,50.6304433333333,-96.9807683333333,2.3,4.2,216,991.94,23.7,47,21.43,0.0,1017.81,142.0
2018-07-29 15:50,50.6304416666667,-96.9807666666667,3.0,5.9,234,991.91,24.0,44,21.65,0.0,1017.75,142.0
2018-07-29 16:00,50.6304366666667,-96.9807616666667,3.1,8.1,242,991.83,24.2,44,21.77,0.0,1017.65,119.2
2018-07-29 16:10,50.6304433333333,-96.980765,4.2,7.7,135,991.74,24.1,58,21.66,0.0,1017.54,119.2
2018-07-29 16:20,50.630445,-96.9807633333333,6.2,10.3,119,991.63,23.4,65,21.56,0.0,1017.45,119.2
2018-07-29 16:30,50.630445,-96.9807633333333,6.5,8.2,127,991.62,23.4,65,21.54,0.0,1017.41,119.2
2018-07-29 16:40,50.630445,-96.980765,6.2,9.2,120,991.57,23.2,64,21.53,0.0,1017.36,119.2
2018-07-29 16:50,50.6304433333333,-96.9807633333333,8.0,10.4,124,991.45,23.2,64,21.59,0.0,1017.23,119.2
2018-07-29 17:00,50.6304366666667,-96.9807533333333,8.9,12.7,128,991.35,23.3,62,21.61,0.0,1017.10,90.0
2018-07-29 17:10,50.6304383333333,-96.9807583333333,8.0,12.8,132,991.32,23.3,59,21.60,0.0,1017.06,90.0
2018-07-29 17:20,50.63044,-96.98076,8.0,11.0,127,991.27,23.5,62,21.58,0.0,1016.99,90.0
2018-07-29 17:30,50.6304333333333,-96.98077,9.9,11.8,129,991.21,23.4,64,21.59,0.0,1016.92,90.0
2018-07-29 17:40,50.6304483333333,-96.9807716666667,9.7,12.3,130,991.12,23.2,63,21.60,0.0,1016.82,90.0
2018-07-29 17:50,50.6304416666667,-96.98077,10.6,12.8,124,991.04,23.3,64,21.72,0.0,1016.73,90.0
2018-07-29 18:00,50.63044,-96.9807716666667,9.7,12.3,128,990.96,23.5,63,22.08,0.0,1016.64,0.0
2018-07-29 18:10,50.6304483333333,-96.9808,10.0,12.7,130,990.94,23.5,63,22.20,0.0,1016.66,0.0
2018-07-29 18:20,50.63044,-96.980765,9.7,12.5,126,990.93,23.5,65,22.14,0.0,1016.65,0.0
2018-07-29 18:30,50.6304383333333,-96.9807616666667,10.8,13.0,127,990.83,23.7,65,22.11,0.0,1016.54,0.0
2018-07-29 18:40,50.6304383333333,-96.9807583333333,9.4,11.8,132,990.83,23.6,65,22.26,0.0,1016.55,0.0
2018-07-29 18:50,50.63044,-96.9807583333333,9.3,12.7,137,990.78,23.6,64,22.30,0.0,1016.49,0.0
2018-07-29 19:00,50.63044,-96.980755,10.3,12.5,132,990.76,23.9,63,22.32,0.0,1016.46,360.0
2018-07-29 19:10,50.63044,-96.9807733333333,11.4,12.8,124,990.67,24.0,65,22.39,0.0,1016.36,360.0
2018-07-29 19:20,50.630445,-96.98078,9.9,12.2,124,990.68,24.1,66,22.49,0.0,1016.36,360.0
2018-07-29 19:30,50.630445,-96.980775,9.5,14.2,122,990.65,24.1,67,22.60,0.0,1016.34,360.0
2018-07-29 19:40,50.6304466666667,-96.9807733333333,10.2,12.9,138,990.56,24.0,58,22.61,0.0,1016.25,360.0
2018-07-29 19:50,50.6304466666667,-96.9807733333333,9.5,14.2,137,990.53,24.2,62,22.59,0.0,1016.20,360.0
2018-07-29 20:00,50.6304466666667,-96.9807716666667,12.3,14.4,141,990.49,24.1,57,22.55,0.0,1016.17,310.6
2018-07-29 20:10,50.630445,-96.9807716666667,13.2,15.1,144,990.52,24.0,56,22.67,0.0,1016.19,310.6
2018-07-29 20:20,50.6304416666667,-96.98077,12.7,14.6,144,990.46,24.1,56,22.74,0.0,1016.13,310.6
2018-07-29 20:30,50.6304383333333,-96.9807633333333,12.0,13.2,146,990.41,24.3,53,22.83,0.0,1016.07,310.6
2018-07-29 20:40,50.6304166666667,-96.9807516666667,12.8,14.1,145,990.35,24.4,52,22.88,0.0,1016.00,310.6
2018-07-29 20:50,50.63044,-96.9807783333333,11.9,13.4,143,990.32,24.6,51,22.88,0.0,1015.95,310.6
2018-07-29 21:00,50.6304383333333,-96.9807716666667,12.3,14.4,144,990.28,24.6,53,22.83,0.0,1015.90,0.0
2018-07-29 21:10,50.6304366666667,-96.9807633333333,12.5,14.8,140,990.20,24.6,55,22.92,0.0,1015.82,0.0
2018-07-29 21:20,50.6304316666667,-96.9807633333333,10.3,13.0,142,990.19,24.8,51,22.97,0.0,1015.79,0.0
2018-07-29 21:30,50.6304366666667,-96.9807766666667,12.4,16.3,134,990.06,25.5,49,23.00,0.0,1015.63,0.0
2018-07-29 21:40,50.63044,-96.980785,11.3,16.4,133,989.99,25.4,54,23.03,0.0,1015.56,0.0
2018-07-29 21:50,50.630425,-96.9807666666667,12.9,15.6,139,989.98,25.0,53,23.09,0.0,1015.57,0.0
2018-07-29 22:00,50.6304383333333,-96.9807583333333,12.5,15.5,143,989.99,25.0,54,23.14,0.0,1015.59,0.0
2018-07-29 22:10,50.630425,-96.9807416666667,13.1,18.0,147,989.95,25.0,53,23.14,0.0,1015.55,0.0
2018-07-29 22:20,50.6304316666667,-96.980765,13.2,15.3,146,989.90,25.0,51,23.17,0.0,1015.48,0.0
2018-07-29 22:30,50.630445,-96.9807783333333,10.4,13.6,156,989.98,24.9,53,23.19,0.0,1015.56,0.0
2018-07-29 22:40,50.6304383333333,-96.9807783333333,9.7,13.6,156,989.87,25.1,51,23.24,0.0,1015.43,0.0
2018-07-29 22:50,50.63044,-96.980765,7.0,13.4,161,989.83,25.9,45,23.28,0.0,1015.36,0.0
2018-07-29 23:00,50.6304433333333,-96.9807666666667,5.0,9.6,151,989.79,26.4,47,23.30,0.0,1015.29,167.4
2018-07-29 23:10,50.6304433333333,-96.9807683333333,5.1,8.5,167,989.75,25.9,47,23.35,0.0,1015.27,167.4
2018-07-29 23:20,50.6304133333333,-96.980755,5.3,9.0,206,989.71,26.9,38,23.36,0.0,1015.15,167.4
2018-07-29 23:30,50.63042,-96.980765,5.9,8.9,219,989.72,27.8,34,23.44,0.0,1015.13,167.4
2018-07-29 23:40,50.6304466666667,-96.980775,5.9,9.1,224,989.72,28.2,31,23.49,0.0,1015.13,167.4
